Year,Month,Day,Hour,Minute,Value (Times are PST for temperature in C)
2011,08,27,00,00,19.30
2011,08,27,00,01,19.30
2011,08,27,00,02,19.20
2011,08,27,00,03,19.20
2011,08,27,00,04,19.10
2011,08,27,00,05,19.10
2011,08,27,00,06,19.10
2011,08,27,00,07,19.10
2011,08,27,00,08,18.90
2011,08,27,00,09,18.90
2011,08,27,00,10,18.90
2011,08,27,00,11,18.90
2011,08,27,00,12,18.90
2011,08,27,00,13,18.80
2011,08,27,00,14,18.80
2011,08,27,00,15,18.70
2011,08,27,00,16,18.70
2011,08,27,00,17,18.60
2011,08,27,00,18,18.60
2011,08,27,00,19,18.50
2011,08,27,00,20,18.50
2011,08,27,00,21,18.40
2011,08,27,00,22,18.40
2011,08,27,00,23,18.30
2011,08,27,00,24,18.30
2011,08,27,00,25,18.20
2011,08,27,00,26,18.20
2011,08,27,00,27,18.10
2011,08,27,00,28,18.10
2011,08,27,00,29,18.00
2011,08,27,00,30,17.90
2011,08,27,00,31,17.90
2011,08,27,00,32,17.90
2011,08,27,00,33,17.90
2011,08,27,00,34,17.90
2011,08,27,00,35,17.80
2011,08,27,00,36,17.80
2011,08,27,00,37,17.80
2011,08,27,00,38,17.80
2011,08,27,00,39,17.70
2011,08,27,00,40,17.70
2011,08,27,00,41,17.70
2011,08,27,00,42,17.70
2011,08,27,00,43,17.70
2011,08,27,00,44,17.70
2011,08,27,00,45,17.70
2011,08,27,00,46,17.70
2011,08,27,00,47,17.70
2011,08,27,00,48,17.70
2011,08,27,00,49,17.70
2011,08,27,00,50,17.70
2011,08,27,00,51,17.70
2011,08,27,00,52,17.60
2011,08,27,00,53,17.60
2011,08,27,00,54,17.60
2011,08,27,00,55,17.60
2011,08,27,00,56,17.60
2011,08,27,00,57,17.50
2011,08,27,00,58,17.50
2011,08,27,00,59,17.50
2011,08,27,01,00,17.40
2011,08,27,01,01,17.40
2011,08,27,01,02,17.40
2011,08,27,01,03,17.30
2011,08,27,01,04,17.30
2011,08,27,01,05,17.30
2011,08,27,01,06,17.30
2011,08,27,01,07,17.30
2011,08,27,01,08,17.30
2011,08,27,01,09,17.20
2011,08,27,01,10,17.20
2011,08,27,01,11,17.20
2011,08,27,01,12,17.20
2011,08,27,01,13,17.10
2011,08,27,01,14,17.10
2011,08,27,01,15,17.10
2011,08,27,01,16,17.10
2011,08,27,01,17,17.00
2011,08,27,01,18,17.00
2011,08,27,01,19,17.00
2011,08,27,01,20,17.00
2011,08,27,01,21,16.90
2011,08,27,01,22,16.90
2011,08,27,01,23,16.90
2011,08,27,01,24,16.80
2011,08,27,01,25,16.80
2011,08,27,01,26,16.80
2011,08,27,01,27,16.70
2011,08,27,01,28,16.70
2011,08,27,01,29,16.70
2011,08,27,01,30,16.70
2011,08,27,01,31,16.70
2011,08,27,01,32,16.70
2011,08,27,01,33,16.60
2011,08,27,01,34,16.60
2011,08,27,01,35,16.60
2011,08,27,01,36,16.60
2011,08,27,01,37,16.50
2011,08,27,01,38,16.40
2011,08,27,01,39,16.40
2011,08,27,01,40,16.40
2011,08,27,01,41,16.40
2011,08,27,01,42,16.40
2011,08,27,01,43,16.40
2011,08,27,01,44,16.40
2011,08,27,01,45,16.40
2011,08,27,01,46,16.30
2011,08,27,01,47,16.30
2011,08,27,01,48,16.30
2011,08,27,01,49,16.30
2011,08,27,01,50,16.20
2011,08,27,01,51,16.20
2011,08,27,01,52,16.20
2011,08,27,01,53,16.20
2011,08,27,01,54,16.10
2011,08,27,01,55,16.10
2011,08,27,01,56,16.10
2011,08,27,01,57,16.10
2011,08,27,01,58,16.10
2011,08,27,01,59,16.10
2011,08,27,02,00,16.10
2011,08,27,02,01,16.10
2011,08,27,02,02,16.10
2011,08,27,02,03,15.90
2011,08,27,02,04,15.90
2011,08,27,02,05,15.90
2011,08,27,02,06,15.90
2011,08,27,02,07,15.80
2011,08,27,02,08,15.80
2011,08,27,02,09,15.80
2011,08,27,02,10,15.80
2011,08,27,02,11,15.80
2011,08,27,02,12,15.80
2011,08,27,02,13,15.70
2011,08,27,02,14,15.70
2011,08,27,02,15,15.70
2011,08,27,02,16,15.70
2011,08,27,02,17,15.70
2011,08,27,02,18,15.60
2011,08,27,02,19,15.60
2011,08,27,02,20,15.60
2011,08,27,02,21,15.60
2011,08,27,02,22,15.50
2011,08,27,02,23,15.50
2011,08,27,02,24,15.50
2011,08,27,02,25,15.50
2011,08,27,02,26,15.50
2011,08,27,02,27,15.40
2011,08,27,02,28,15.40
2011,08,27,02,29,15.40
2011,08,27,02,30,15.40
2011,08,27,02,31,15.40
2011,08,27,02,32,15.30
2011,08,27,02,33,15.30
2011,08,27,02,34,15.30
2011,08,27,02,35,15.30
2011,08,27,02,36,15.30
2011,08,27,02,37,15.30
2011,08,27,02,38,15.30
2011,08,27,02,39,15.30
2011,08,27,02,40,15.30
2011,08,27,02,41,15.30
2011,08,27,02,42,15.30
2011,08,27,02,43,15.20
2011,08,27,02,44,15.20
2011,08,27,02,45,15.20
2011,08,27,02,46,15.20
2011,08,27,02,47,15.20
2011,08,27,02,48,15.20
2011,08,27,02,49,15.20
2011,08,27,02,50,15.20
2011,08,27,02,51,15.20
2011,08,27,02,52,15.10
2011,08,27,02,53,15.10
2011,08,27,02,54,15.10
2011,08,27,02,55,15.10
2011,08,27,02,56,15.10
2011,08,27,02,57,15.10
2011,08,27,02,58,15.10
2011,08,27,02,59,15.10
2011,08,27,03,00,15.10
2011,08,27,03,01,15.00
2011,08,27,03,02,15.00
2011,08,27,03,03,15.00
2011,08,27,03,04,15.00
2011,08,27,03,05,15.00
2011,08,27,03,06,15.00
2011,08,27,03,07,15.00
2011,08,27,03,08,15.00
2011,08,27,03,09,14.90
2011,08,27,03,10,14.90
2011,08,27,03,11,14.90
2011,08,27,03,12,14.90
2011,08,27,03,13,14.90
2011,08,27,03,14,14.90
2011,08,27,03,15,14.90
2011,08,27,03,16,14.90
2011,08,27,03,17,14.80
2011,08,27,03,18,14.80
2011,08,27,03,19,14.80
2011,08,27,03,20,14.80
2011,08,27,03,21,14.80
2011,08,27,03,22,14.80
2011,08,27,03,23,14.80
2011,08,27,03,24,14.80
2011,08,27,03,25,14.80
2011,08,27,03,26,14.70
2011,08,27,03,27,14.70
2011,08,27,03,28,14.70
2011,08,27,03,29,14.70
2011,08,27,03,30,14.70
2011,08,27,03,31,14.70
2011,08,27,03,32,14.70
2011,08,27,03,33,14.60
2011,08,27,03,34,14.60
2011,08,27,03,35,14.60
2011,08,27,03,36,14.60
2011,08,27,03,37,14.60
2011,08,27,03,38,14.60
2011,08,27,03,39,14.60
2011,08,27,03,40,14.60
2011,08,27,03,41,14.60
2011,08,27,03,42,14.60
2011,08,27,03,43,14.50
2011,08,27,03,44,14.50
2011,08,27,03,45,14.50
2011,08,27,03,46,14.50
2011,08,27,03,47,14.50
2011,08,27,03,48,14.50
2011,08,27,03,49,14.50
2011,08,27,03,50,14.50
2011,08,27,03,51,14.50
2011,08,27,03,52,14.50
2011,08,27,03,53,14.40
2011,08,27,03,54,14.40
2011,08,27,03,55,14.40
2011,08,27,03,56,14.40
2011,08,27,03,57,14.40
2011,08,27,03,58,14.40
2011,08,27,03,59,14.40
2011,08,27,04,00,14.30
2011,08,27,04,01,14.30
2011,08,27,04,02,14.30
2011,08,27,04,03,14.30
2011,08,27,04,04,14.30
2011,08,27,04,05,14.30
2011,08,27,04,06,14.30
2011,08,27,04,07,14.30
2011,08,27,04,08,14.20
2011,08,27,04,09,14.20
2011,08,27,04,10,14.20
2011,08,27,04,11,14.20
2011,08,27,04,12,14.20
2011,08,27,04,13,14.20
2011,08,27,04,14,14.20
2011,08,27,04,15,14.20
2011,08,27,04,16,14.20
2011,08,27,04,17,14.20
2011,08,27,04,18,14.20
2011,08,27,04,19,14.20
2011,08,27,04,20,14.20
2011,08,27,04,21,14.20
2011,08,27,04,22,14.20
2011,08,27,04,23,14.10
2011,08,27,04,24,14.10
2011,08,27,04,25,14.10
2011,08,27,04,26,14.10
2011,08,27,04,27,14.10
2011,08,27,04,28,14.10
2011,08,27,04,29,14.10
2011,08,27,04,30,14.10
2011,08,27,04,31,14.10
2011,08,27,04,32,14.10
2011,08,27,04,33,14.10
2011,08,27,04,34,14.10
2011,08,27,04,35,14.20
2011,08,27,04,36,14.20
2011,08,27,04,37,14.10
2011,08,27,04,38,14.10
2011,08,27,04,39,14.10
2011,08,27,04,40,14.10
2011,08,27,04,41,14.10
2011,08,27,04,42,14.10
2011,08,27,04,43,14.10
2011,08,27,04,44,14.10
2011,08,27,04,45,14.10
2011,08,27,04,46,14.00
2011,08,27,04,47,14.00
2011,08,27,04,48,14.00
2011,08,27,04,49,14.00
2011,08,27,04,50,14.00
2011,08,27,04,51,14.00
2011,08,27,04,52,14.00
2011,08,27,04,53,14.00
2011,08,27,04,54,14.00
2011,08,27,04,55,14.00
2011,08,27,04,56,14.00
2011,08,27,04,57,14.00
2011,08,27,04,58,14.00
2011,08,27,04,59,14.00
2011,08,27,05,00,14.00
2011,08,27,05,01,13.90
2011,08,27,05,02,13.90
2011,08,27,05,03,13.90
2011,08,27,05,04,13.90
2011,08,27,05,05,13.90
2011,08,27,05,06,13.80
2011,08,27,05,07,13.80
2011,08,27,05,08,13.80
2011,08,27,05,09,13.80
2011,08,27,05,10,13.80
2011,08,27,05,11,13.80
2011,08,27,05,12,13.80
2011,08,27,05,13,13.80
2011,08,27,05,14,13.80
2011,08,27,05,15,13.80
2011,08,27,05,16,13.80
2011,08,27,05,17,13.80
2011,08,27,05,18,13.80
2011,08,27,05,19,13.80
2011,08,27,05,20,13.80
2011,08,27,05,21,13.80
2011,08,27,05,22,13.80
2011,08,27,05,23,13.80
2011,08,27,05,24,13.70
2011,08,27,05,25,13.70
2011,08,27,05,26,13.70
2011,08,27,05,27,13.70
2011,08,27,05,28,13.70
2011,08,27,05,29,13.70
2011,08,27,05,30,13.70
2011,08,27,05,31,13.70
2011,08,27,05,32,13.70
2011,08,27,05,33,13.70
2011,08,27,05,34,13.70
2011,08,27,05,35,13.70
2011,08,27,05,36,13.70
2011,08,27,05,37,13.70
2011,08,27,05,38,13.70
2011,08,27,05,39,13.70
2011,08,27,05,40,13.70
2011,08,27,05,41,13.70
2011,08,27,05,42,13.70
2011,08,27,05,43,13.60
2011,08,27,05,44,13.60
2011,08,27,05,45,13.60
2011,08,27,05,46,13.60
2011,08,27,05,47,13.60
2011,08,27,05,48,13.60
2011,08,27,05,49,13.60
2011,08,27,05,50,13.60
2011,08,27,05,51,13.60
2011,08,27,05,52,13.50
2011,08,27,05,53,13.50
2011,08,27,05,54,13.50
2011,08,27,05,55,13.50
2011,08,27,05,56,13.50
2011,08,27,05,57,13.50
2011,08,27,05,58,13.40
2011,08,27,05,59,13.40
2011,08,27,06,00,13.40
2011,08,27,06,01,13.30
2011,08,27,06,02,13.30
2011,08,27,06,03,13.30
2011,08,27,06,04,13.30
2011,08,27,06,05,13.30
2011,08,27,06,06,13.30
2011,08,27,06,07,13.30
2011,08,27,06,08,13.30
2011,08,27,06,09,13.30
2011,08,27,06,10,13.30
2011,08,27,06,11,13.20
2011,08,27,06,12,13.20
2011,08,27,06,13,13.20
2011,08,27,06,14,13.20
2011,08,27,06,15,13.20
2011,08,27,06,16,13.20
2011,08,27,06,17,13.30
2011,08,27,06,18,13.30
2011,08,27,06,19,13.30
2011,08,27,06,20,13.30
2011,08,27,06,21,13.30
2011,08,27,06,22,13.30
2011,08,27,06,23,13.30
2011,08,27,06,24,13.30
2011,08,27,06,25,13.30
2011,08,27,06,26,13.20
2011,08,27,06,27,13.20
2011,08,27,06,28,13.20
2011,08,27,06,29,13.20
2011,08,27,06,30,13.20
2011,08,27,06,31,13.10
2011,08,27,06,32,13.10
2011,08,27,06,33,13.10
2011,08,27,06,34,13.10
2011,08,27,06,35,13.10
2011,08,27,06,36,13.10
2011,08,27,06,37,13.00
2011,08,27,06,38,13.00
2011,08,27,06,39,13.00
2011,08,27,06,40,13.00
2011,08,27,06,41,13.00
2011,08,27,06,42,13.00
2011,08,27,06,43,13.00
2011,08,27,06,44,13.00
2011,08,27,06,45,13.00
2011,08,27,06,46,13.00
2011,08,27,06,47,13.00
2011,08,27,06,48,13.00
2011,08,27,06,49,13.00
2011,08,27,06,50,13.00
2011,08,27,06,51,13.00
2011,08,27,06,52,13.00
2011,08,27,06,53,13.00
2011,08,27,06,54,13.00
2011,08,27,06,55,13.00
2011,08,27,06,56,13.00
2011,08,27,06,57,13.10
2011,08,27,06,58,13.10
2011,08,27,06,59,13.10
2011,08,27,07,00,13.10
2011,08,27,07,01,13.20
2011,08,27,07,02,13.20
2011,08,27,07,03,13.30
2011,08,27,07,04,13.30
2011,08,27,07,05,13.30
2011,08,27,07,06,13.30
2011,08,27,07,07,13.30
2011,08,27,07,08,13.30
2011,08,27,07,09,13.30
2011,08,27,07,10,13.30
2011,08,27,07,11,13.40
2011,08,27,07,12,13.40
2011,08,27,07,13,13.40
2011,08,27,07,14,13.40
2011,08,27,07,15,13.50
2011,08,27,07,16,13.50
2011,08,27,07,17,13.50
2011,08,27,07,18,13.50
2011,08,27,07,19,13.60
2011,08,27,07,20,13.60
2011,08,27,07,21,13.60
2011,08,27,07,22,13.70
2011,08,27,07,23,13.70
2011,08,27,07,24,13.70
2011,08,27,07,25,13.70
2011,08,27,07,26,13.70
2011,08,27,07,27,13.80
2011,08,27,07,28,13.90
2011,08,27,07,29,13.90
2011,08,27,07,30,14.00
2011,08,27,07,31,14.00
2011,08,27,07,32,14.10
2011,08,27,07,33,14.10
2011,08,27,07,34,14.20
2011,08,27,07,35,14.20
2011,08,27,07,36,14.20
2011,08,27,07,37,14.30
2011,08,27,07,38,14.40
2011,08,27,07,39,14.40
2011,08,27,07,40,14.50
2011,08,27,07,41,14.50
2011,08,27,07,42,14.60
2011,08,27,07,43,14.70
2011,08,27,07,44,14.80
2011,08,27,07,45,14.80
2011,08,27,07,46,14.90
2011,08,27,07,47,15.00
2011,08,27,07,48,15.10
2011,08,27,07,49,15.20
2011,08,27,07,50,15.30
2011,08,27,07,51,15.30
2011,08,27,07,52,15.40
2011,08,27,07,53,15.50
2011,08,27,07,54,15.50
2011,08,27,07,55,15.60
2011,08,27,07,56,15.70
2011,08,27,07,57,15.80
2011,08,27,07,58,15.90
2011,08,27,07,59,16.00
2011,08,27,08,00,16.10
2011,08,27,08,01,16.20
2011,08,27,08,02,16.30
2011,08,27,08,03,16.40
2011,08,27,08,04,16.40
2011,08,27,08,05,16.40
2011,08,27,08,06,16.60
2011,08,27,08,07,16.60
2011,08,27,08,08,16.70
2011,08,27,08,09,16.70
2011,08,27,08,10,16.70
2011,08,27,08,11,16.70
2011,08,27,08,12,16.70
2011,08,27,08,13,16.70
2011,08,27,08,14,16.80
2011,08,27,08,15,16.90
2011,08,27,08,16,16.90
2011,08,27,08,17,16.90
2011,08,27,08,18,17.00
2011,08,27,08,19,17.00
2011,08,27,08,20,17.00
2011,08,27,08,21,17.10
2011,08,27,08,22,17.10
2011,08,27,08,23,17.20
2011,08,27,08,24,17.20
2011,08,27,08,25,17.20
2011,08,27,08,26,17.30
2011,08,27,08,27,17.30
2011,08,27,08,28,17.30
2011,08,27,08,29,17.40
2011,08,27,08,30,17.50
2011,08,27,08,31,17.60
2011,08,27,08,32,17.70
2011,08,27,08,33,17.70
2011,08,27,08,34,17.80
2011,08,27,08,35,17.80
2011,08,27,08,36,17.90
2011,08,27,08,37,17.90
2011,08,27,08,38,18.00
2011,08,27,08,39,18.10
2011,08,27,08,40,18.20
2011,08,27,08,41,18.20
2011,08,27,08,42,18.20
2011,08,27,08,43,18.10
2011,08,27,08,44,18.10
2011,08,27,08,45,18.00
2011,08,27,08,46,17.90
2011,08,27,08,47,17.90
2011,08,27,08,48,17.90
2011,08,27,08,49,18.00
2011,08,27,08,50,18.10
2011,08,27,08,51,18.10
2011,08,27,08,52,18.20
2011,08,27,08,53,18.30
2011,08,27,08,54,18.40
2011,08,27,08,55,18.50
2011,08,27,08,56,18.60
2011,08,27,08,57,18.70
2011,08,27,08,58,18.90
2011,08,27,08,59,19.00
2011,08,27,09,00,19.10
2011,08,27,09,01,19.10
2011,08,27,09,02,19.10
2011,08,27,09,03,19.20
2011,08,27,09,04,19.20
2011,08,27,09,05,19.30
2011,08,27,09,06,19.40
2011,08,27,09,07,19.50
2011,08,27,09,08,19.60
2011,08,27,09,09,19.70
2011,08,27,09,10,19.90
2011,08,27,09,11,19.90
2011,08,27,09,12,20.10
2011,08,27,09,13,20.20
2011,08,27,09,14,20.20
2011,08,27,09,15,20.20
2011,08,27,09,16,20.20
2011,08,27,09,17,20.20
2011,08,27,09,18,20.20
2011,08,27,09,19,20.30
2011,08,27,09,20,20.40
2011,08,27,09,21,20.40
2011,08,27,09,22,20.50
2011,08,27,09,23,20.50
2011,08,27,09,24,20.60
2011,08,27,09,25,20.70
2011,08,27,09,26,20.80
2011,08,27,09,27,20.80
2011,08,27,09,28,20.80
2011,08,27,09,29,20.80
2011,08,27,09,30,20.70
2011,08,27,09,31,20.60
2011,08,27,09,32,20.50
2011,08,27,09,33,20.30
2011,08,27,09,34,20.20
2011,08,27,09,35,20.20
2011,08,27,09,36,20.20
2011,08,27,09,37,20.10
2011,08,27,09,38,20.10
2011,08,27,09,39,20.20
2011,08,27,09,40,20.20
2011,08,27,09,41,20.30
2011,08,27,09,42,20.40
2011,08,27,09,43,20.50
2011,08,27,09,44,20.60
2011,08,27,09,45,20.70
2011,08,27,09,46,20.80
2011,08,27,09,47,21.00
2011,08,27,09,48,21.00
2011,08,27,09,49,21.20
2011,08,27,09,50,21.30
2011,08,27,09,51,21.40
2011,08,27,09,52,21.60
2011,08,27,09,53,21.60
2011,08,27,09,54,21.60
2011,08,27,09,55,21.60
2011,08,27,09,56,21.60
2011,08,27,09,57,21.60
2011,08,27,09,58,21.60
2011,08,27,09,59,21.50
2011,08,27,10,00,21.40
2011,08,27,10,01,21.30
2011,08,27,10,02,21.30
2011,08,27,10,03,21.30
2011,08,27,10,04,21.30
2011,08,27,10,05,21.30
2011,08,27,10,06,21.20
2011,08,27,10,07,21.20
2011,08,27,10,08,21.20
2011,08,27,10,09,21.20
2011,08,27,10,10,21.20
2011,08,27,10,11,21.20
2011,08,27,10,12,21.20
2011,08,27,10,13,21.20
2011,08,27,10,14,21.30
2011,08,27,10,15,21.30
2011,08,27,10,16,21.20
2011,08,27,10,17,21.20
2011,08,27,10,18,21.20
2011,08,27,10,19,21.20
2011,08,27,10,20,21.30
2011,08,27,10,21,21.30
2011,08,27,10,22,21.30
2011,08,27,10,23,21.30
2011,08,27,10,24,21.20
2011,08,27,10,25,21.10
2011,08,27,10,26,21.10
2011,08,27,10,27,21.10
2011,08,27,10,28,21.10
2011,08,27,10,29,21.10
2011,08,27,10,30,21.10
2011,08,27,10,31,21.20
2011,08,27,10,32,21.20
2011,08,27,10,33,21.20
2011,08,27,10,34,21.30
2011,08,27,10,35,21.30
2011,08,27,10,36,21.40
2011,08,27,10,37,21.40
2011,08,27,10,38,21.40
2011,08,27,10,39,21.40
2011,08,27,10,40,21.50
2011,08,27,10,41,21.60
2011,08,27,10,42,21.60
2011,08,27,10,43,21.60
2011,08,27,10,44,21.60
2011,08,27,10,45,21.60
2011,08,27,10,46,21.70
2011,08,27,10,47,21.80
2011,08,27,10,48,21.80
2011,08,27,10,49,21.90
2011,08,27,10,50,22.00
2011,08,27,10,51,22.10
2011,08,27,10,52,22.10
2011,08,27,10,53,22.20
2011,08,27,10,54,22.10
2011,08,27,10,55,22.00
2011,08,27,10,56,22.00
2011,08,27,10,57,21.90
2011,08,27,10,58,21.90
2011,08,27,10,59,21.90
2011,08,27,11,00,21.90
2011,08,27,11,01,21.90
2011,08,27,11,02,21.90
2011,08,27,11,03,21.90
2011,08,27,11,04,22.00
2011,08,27,11,05,22.00
2011,08,27,11,06,22.10
2011,08,27,11,07,22.10
2011,08,27,11,08,22.10
2011,08,27,11,09,22.10
2011,08,27,11,10,22.10
2011,08,27,11,11,22.20
2011,08,27,11,12,22.30
2011,08,27,11,13,22.20
2011,08,27,11,14,22.10
2011,08,27,11,15,22.10
2011,08,27,11,16,22.00
2011,08,27,11,17,22.10
2011,08,27,11,18,22.10
2011,08,27,11,19,22.20
2011,08,27,11,20,22.00
2011,08,27,11,21,22.00
2011,08,27,11,22,22.00
2011,08,27,11,23,22.10
2011,08,27,11,24,22.20
2011,08,27,11,25,22.30
2011,08,27,11,26,22.40
2011,08,27,11,27,22.60
2011,08,27,11,28,22.80
2011,08,27,11,29,22.90
2011,08,27,11,30,23.00
2011,08,27,11,31,23.10
2011,08,27,11,32,23.20
2011,08,27,11,33,23.10
2011,08,27,11,34,23.10
2011,08,27,11,35,23.10
2011,08,27,11,36,23.10
2011,08,27,11,37,23.20
2011,08,27,11,38,23.30
2011,08,27,11,39,23.30
2011,08,27,11,40,23.30
2011,08,27,11,41,23.30
2011,08,27,11,42,23.20
2011,08,27,11,43,23.10
2011,08,27,11,44,23.00
2011,08,27,11,45,22.90
2011,08,27,11,46,22.90
2011,08,27,11,47,23.00
2011,08,27,11,48,23.10
2011,08,27,11,49,23.00
2011,08,27,11,50,22.90
2011,08,27,11,51,22.90
2011,08,27,11,52,22.90
2011,08,27,11,53,22.90
2011,08,27,11,54,22.80
2011,08,27,11,55,22.90
2011,08,27,11,56,22.90
2011,08,27,11,57,22.90
2011,08,27,11,58,22.90
2011,08,27,11,59,22.90
2011,08,27,12,00,23.00
2011,08,27,12,01,23.10
2011,08,27,12,02,23.30
2011,08,27,12,03,23.30
2011,08,27,12,04,23.30
2011,08,27,12,05,23.40
2011,08,27,12,06,23.50
2011,08,27,12,07,23.60
2011,08,27,12,08,23.60
2011,08,27,12,09,23.40
2011,08,27,12,10,23.20
2011,08,27,12,11,23.20
2011,08,27,12,12,23.10
2011,08,27,12,13,22.90
2011,08,27,12,14,22.90
2011,08,27,12,15,23.00
2011,08,27,12,16,23.20
2011,08,27,12,17,23.30
2011,08,27,12,18,23.20
2011,08,27,12,19,23.20
2011,08,27,12,20,23.20
2011,08,27,12,21,23.20
2011,08,27,12,22,23.30
2011,08,27,12,23,23.40
2011,08,27,12,24,23.50
2011,08,27,12,25,23.60
2011,08,27,12,26,23.70
2011,08,27,12,27,23.70
2011,08,27,12,28,23.70
2011,08,27,12,29,23.70
2011,08,27,12,30,23.80
2011,08,27,12,31,23.80
2011,08,27,12,32,23.80
2011,08,27,12,33,23.70
2011,08,27,12,34,23.70
2011,08,27,12,35,23.70
2011,08,27,12,36,23.60
2011,08,27,12,37,23.60
2011,08,27,12,38,23.60
2011,08,27,12,39,23.60
2011,08,27,12,40,23.60
2011,08,27,12,41,23.70
2011,08,27,12,42,23.70
2011,08,27,12,43,23.70
2011,08,27,12,44,23.70
2011,08,27,12,45,23.60
2011,08,27,12,46,23.60
2011,08,27,12,47,23.70
2011,08,27,12,48,23.70
2011,08,27,12,49,23.70
2011,08,27,12,50,23.60
2011,08,27,12,51,23.60
2011,08,27,12,52,23.60
2011,08,27,12,53,23.60
2011,08,27,12,54,23.40
2011,08,27,12,55,23.40
2011,08,27,12,56,23.40
2011,08,27,12,57,23.50
2011,08,27,12,58,23.60
2011,08,27,12,59,23.70
2011,08,27,13,00,23.70
2011,08,27,13,01,23.70
2011,08,27,13,02,23.80
2011,08,27,13,03,23.90
2011,08,27,13,04,23.90
2011,08,27,13,05,24.00
2011,08,27,13,06,24.10
2011,08,27,13,07,24.10
2011,08,27,13,08,24.20
2011,08,27,13,09,24.30
2011,08,27,13,10,24.40
2011,08,27,13,11,24.50
2011,08,27,13,12,24.60
2011,08,27,13,13,24.70
2011,08,27,13,14,24.70
2011,08,27,13,15,24.70
2011,08,27,13,16,24.80
2011,08,27,13,17,24.90
2011,08,27,13,18,25.10
2011,08,27,13,19,25.10
2011,08,27,13,20,25.00
2011,08,27,13,21,24.90
2011,08,27,13,22,24.80
2011,08,27,13,23,24.80
2011,08,27,13,24,24.80
2011,08,27,13,25,24.90
2011,08,27,13,26,25.10
2011,08,27,13,27,25.30
2011,08,27,13,28,25.30
2011,08,27,13,29,25.30
2011,08,27,13,30,25.20
2011,08,27,13,31,25.10
2011,08,27,13,32,25.10
2011,08,27,13,33,25.10
2011,08,27,13,34,25.10
2011,08,27,13,35,25.20
2011,08,27,13,36,25.30
2011,08,27,13,37,25.40
2011,08,27,13,38,25.40
2011,08,27,13,39,25.40
2011,08,27,13,40,25.40
2011,08,27,13,41,25.30
2011,08,27,13,42,25.20
2011,08,27,13,43,25.20
2011,08,27,13,44,25.20
2011,08,27,13,45,25.20
2011,08,27,13,46,25.30
2011,08,27,13,47,25.40
2011,08,27,13,48,25.40
2011,08,27,13,49,25.50
2011,08,27,13,50,25.50
2011,08,27,13,51,25.50
2011,08,27,13,52,25.60
2011,08,27,13,53,25.60
2011,08,27,13,54,25.60
2011,08,27,13,55,25.40
2011,08,27,13,56,25.20
2011,08,27,13,57,25.20
2011,08,27,13,58,25.10
2011,08,27,13,59,25.10
2011,08,27,14,00,25.20
2011,08,27,14,01,25.20
2011,08,27,14,02,25.20
2011,08,27,14,03,25.30
2011,08,27,14,04,25.40
2011,08,27,14,05,25.50
2011,08,27,14,06,25.70
2011,08,27,14,07,25.80
2011,08,27,14,08,25.90
2011,08,27,14,09,26.00
2011,08,27,14,10,26.00
2011,08,27,14,11,26.00
2011,08,27,14,12,26.00
2011,08,27,14,13,26.00
2011,08,27,14,14,26.00
2011,08,27,14,15,25.90
2011,08,27,14,16,25.90
2011,08,27,14,17,25.90
2011,08,27,14,18,25.90
2011,08,27,14,19,25.90
2011,08,27,14,20,25.90
2011,08,27,14,21,25.80
2011,08,27,14,22,25.60
2011,08,27,14,23,25.50
2011,08,27,14,24,25.30
2011,08,27,14,25,25.00
2011,08,27,14,26,24.80
2011,08,27,14,27,24.80
2011,08,27,14,28,24.90
2011,08,27,14,29,25.00
2011,08,27,14,30,25.10
2011,08,27,14,31,25.20
2011,08,27,14,32,25.40
2011,08,27,14,33,25.50
2011,08,27,14,34,25.60
2011,08,27,14,35,25.80
2011,08,27,14,36,25.90
2011,08,27,14,37,25.90
2011,08,27,14,38,26.00
2011,08,27,14,39,26.10
2011,08,27,14,40,26.10
2011,08,27,14,41,26.20
2011,08,27,14,42,26.30
2011,08,27,14,43,26.40
2011,08,27,14,44,26.40
2011,08,27,14,45,26.60
2011,08,27,14,46,26.60
2011,08,27,14,47,26.60
2011,08,27,14,48,26.60
2011,08,27,14,49,26.60
2011,08,27,14,50,26.50
2011,08,27,14,51,26.40
2011,08,27,14,52,26.30
2011,08,27,14,53,26.30
2011,08,27,14,54,26.20
2011,08,27,14,55,26.20
2011,08,27,14,56,26.20
2011,08,27,14,57,26.10
2011,08,27,14,58,26.10
2011,08,27,14,59,26.10
2011,08,27,15,00,26.10
2011,08,27,15,01,26.20
2011,08,27,15,02,26.20
2011,08,27,15,03,26.10
2011,08,27,15,04,26.10
2011,08,27,15,05,26.00
2011,08,27,15,06,26.00
2011,08,27,15,07,26.10
2011,08,27,15,08,26.10
2011,08,27,15,09,26.10
2011,08,27,15,10,26.10
2011,08,27,15,11,26.10
2011,08,27,15,12,26.10
2011,08,27,15,13,26.10
2011,08,27,15,14,26.00
2011,08,27,15,15,26.00
2011,08,27,15,16,25.90
2011,08,27,15,17,25.90
2011,08,27,15,18,26.00
2011,08,27,15,19,26.00
2011,08,27,15,20,26.10
2011,08,27,15,21,26.20
2011,08,27,15,22,26.30
2011,08,27,15,23,26.40
2011,08,27,15,24,26.40
2011,08,27,15,25,26.50
2011,08,27,15,26,26.60
2011,08,27,15,27,26.60
2011,08,27,15,28,26.50
2011,08,27,15,29,26.40
2011,08,27,15,30,26.30
2011,08,27,15,31,26.20
2011,08,27,15,32,26.10
2011,08,27,15,33,26.00
2011,08,27,15,34,25.90
2011,08,27,15,35,25.90
2011,08,27,15,36,25.90
2011,08,27,15,37,26.00
2011,08,27,15,38,26.10
2011,08,27,15,39,26.20
2011,08,27,15,40,26.30
2011,08,27,15,41,26.40
2011,08,27,15,42,26.40
2011,08,27,15,43,26.40
2011,08,27,15,44,26.50
2011,08,27,15,45,26.60
2011,08,27,15,46,26.60
2011,08,27,15,47,26.60
2011,08,27,15,48,26.60
2011,08,27,15,49,26.50
2011,08,27,15,50,26.40
2011,08,27,15,51,26.30
2011,08,27,15,52,26.30
2011,08,27,15,53,26.30
2011,08,27,15,54,26.20
2011,08,27,15,55,26.20
2011,08,27,15,56,26.20
2011,08,27,15,57,26.20
2011,08,27,15,58,26.20
2011,08,27,15,59,26.10
2011,08,27,16,00,26.10
2011,08,27,16,01,26.10
2011,08,27,16,02,26.10
2011,08,27,16,03,26.10
2011,08,27,16,04,26.10
2011,08,27,16,05,26.10
2011,08,27,16,06,26.10
2011,08,27,16,07,26.10
2011,08,27,16,08,26.10
2011,08,27,16,09,26.10
2011,08,27,16,10,26.10
2011,08,27,16,11,26.10
2011,08,27,16,12,26.00
2011,08,27,16,13,26.00
2011,08,27,16,14,26.00
2011,08,27,16,15,25.90
2011,08,27,16,16,25.90
2011,08,27,16,17,25.80
2011,08,27,16,18,25.80
2011,08,27,16,19,25.80
2011,08,27,16,20,25.60
2011,08,27,16,21,25.60
2011,08,27,16,22,25.50
2011,08,27,16,23,25.50
2011,08,27,16,24,25.40
2011,08,27,16,25,25.40
2011,08,27,16,26,25.30
2011,08,27,16,27,25.20
2011,08,27,16,28,25.10
2011,08,27,16,29,25.00
2011,08,27,16,30,25.00
2011,08,27,16,31,25.10
2011,08,27,16,32,25.10
2011,08,27,16,33,25.10
2011,08,27,16,34,25.10
2011,08,27,16,35,25.10
2011,08,27,16,36,25.10
2011,08,27,16,37,25.10
2011,08,27,16,38,25.10
2011,08,27,16,39,25.10
2011,08,27,16,40,25.10
2011,08,27,16,41,25.10
2011,08,27,16,42,25.20
2011,08,27,16,43,25.20
2011,08,27,16,44,25.10
2011,08,27,16,45,25.10
2011,08,27,16,46,25.20
2011,08,27,16,47,25.20
2011,08,27,16,48,25.30
2011,08,27,16,49,25.40
2011,08,27,16,50,25.40
2011,08,27,16,51,25.40
2011,08,27,16,52,25.50
2011,08,27,16,53,25.50
2011,08,27,16,54,25.60
2011,08,27,16,55,25.60
2011,08,27,16,56,25.60
2011,08,27,16,57,25.70
2011,08,27,16,58,25.70
2011,08,27,16,59,25.80
2011,08,27,17,00,25.90
2011,08,27,17,01,25.90
2011,08,27,17,02,25.90
2011,08,27,17,03,25.90
2011,08,27,17,04,25.90
2011,08,27,17,05,25.90
2011,08,27,17,06,25.80
2011,08,27,17,07,25.90
2011,08,27,17,08,25.90
2011,08,27,17,09,25.90
2011,08,27,17,10,25.90
2011,08,27,17,11,26.00
2011,08,27,17,12,26.00
2011,08,27,17,13,26.10
2011,08,27,17,14,26.10
2011,08,27,17,15,26.10
2011,08,27,17,16,26.10
2011,08,27,17,17,26.00
2011,08,27,17,18,26.00
2011,08,27,17,19,26.00